Tracking 20093 objects as of 16-Dec-2019
HD Live streaming from Space Station
objects crossing your sky now

FENGYUN 1C DEB

Track FENGYUN 1C DEB now!
10-day predictions


NORAD ID: 30820
Int'l Code: 1999-025AVE
Perigee: 836.2 km
Apogee: 925.9 km
Inclination: 98.6 °
Period: 102.4 minutes
Semi major axis: 7252 km
RCS: 0.0172 m2 (small)
Launch date: May 10, 1999
Source: People's Republic of China (PRC)
Launch site: Taiyaun Space Center, China (TSC)

Note: This is SATELLITE DEBRIS
aabbcc
Your satellite tracking list
Your tracking list is empty




NASA's NSSDC Master Catalog

Two Line Element Set (TLE):
1 30820U 99025AVE 19349.34350322 +.00000651 +00000-0 +41752-3 0  9990
2 30820 098.6108 134.4031 0061807 282.5289 106.3123 14.05758665655606
Source of the keplerian elements: AFSPC